timestamp,wind_dir_avg,wind_spd_max_dir,wind_spd_avg,wind_spd_gust,battery_voltage,lat,long
2018-06-29 00:00:00+00:00,226.0,227.0,10.54,11.19,,47.59359,-54.27349
2018-06-29 00:10:00+00:00,227.0,228.0,10.69,11.39,,47.59359,-54.27349
2018-06-29 00:20:00+00:00,230.0,231.0,8.93,9.61,,47.59359,-54.27349
2018-06-29 00:30:00+00:00,230.0,232.0,9.4,10.98,,47.59359,-54.27349
2018-06-29 00:40:00+00:00,228.0,230.0,9.51,10.55,,47.59359,-54.27349
2018-06-29 00:50:00+00:00,225.0,227.0,10.31,11.94,,47.59359,-54.27349
2018-06-29 01:00:00+00:00,222.0,222.0,10.22,11.16,,47.59359,-54.27349
2018-06-29 01:10:00+00:00,223.0,223.0,9.88,10.81,,47.59359,-54.27349
2018-06-29 01:20:00+00:00,224.0,222.0,9.72,10.79,,47.59359,-54.27349
2018-06-29 01:30:00+00:00,225.0,225.0,9.36,10.33,,47.59359,-54.27349
2018-06-29 01:40:00+00:00,229.0,229.0,8.24,8.95,,47.59359,-54.27349
2018-06-29 01:50:00+00:00,225.0,223.0,8.59,9.3,,47.59359,-54.27349
2018-06-29 02:00:00+00:00,222.0,220.0,8.88,9.51,,47.59359,-54.27349
2018-06-29 02:10:00+00:00,219.0,221.0,8.75,9.53,,47.59359,-54.27349
2018-06-29 02:20:00+00:00,218.0,220.0,7.69,8.26,,47.59359,-54.27349
2018-06-29 02:30:00+00:00,214.0,216.0,7.29,8.23,,47.59359,-54.27349
2018-06-29 02:40:00+00:00,218.0,220.0,7.89,8.67,,47.59359,-54.27349
2018-06-29 02:50:00+00:00,219.0,218.0,7.6,8.67,,47.59359,-54.27349
2018-06-29 03:00:00+00:00,212.0,215.0,7.69,8.66,,47.59359,-54.27349
2018-06-29 03:10:00+00:00,213.0,215.0,7.14,7.85,,47.59359,-54.27349
2018-06-29 03:20:00+00:00,211.0,215.0,6.51,7.19,,47.59359,-54.27349
2018-06-29 03:30:00+00:00,216.0,217.0,7.42,8.04,,47.59359,-54.27349
2018-06-29 03:40:00+00:00,215.0,214.0,6.83,7.17,,47.59359,-54.27349
2018-06-29 03:50:00+00:00,217.0,212.0,7.3,8.65,,47.59359,-54.27349
2018-06-29 04:00:00+00:00,226.0,227.0,6.73,7.99,,47.59359,-54.27349
2018-06-29 04:10:00+00:00,223.0,223.0,6.31,6.86,,47.59359,-54.27349
2018-06-29 04:20:00+00:00,222.0,225.0,7.17,7.91,,47.59359,-54.27349
2018-06-29 04:30:00+00:00,228.0,231.0,6.41,7.18,,47.59359,-54.27349
2018-06-29 04:40:00+00:00,227.0,227.0,7.09,7.98,,47.59359,-54.27349
2018-06-29 04:50:00+00:00,224.0,222.0,7.75,8.62,,47.59359,-54.27349
2018-06-29 05:00:00+00:00,229.0,233.0,7.45,8.24,,47.59359,-54.27349
2018-06-29 05:10:00+00:00,222.0,226.0,7.3,8.04,,47.59359,-54.27349
2018-06-29 05:20:00+00:00,221.0,223.0,6.99,7.97,,47.59359,-54.27349
2018-06-29 05:30:00+00:00,219.0,218.0,6.83,7.8,,47.59359,-54.27349
2018-06-29 05:40:00+00:00,224.0,229.0,5.76,6.77,,47.59359,-54.27349
2018-06-29 05:50:00+00:00,218.0,221.0,5.49,6.1,,47.59359,-54.27349
2018-06-29 06:00:00+00:00,219.0,215.0,6.26,7.19,,47.59359,-54.27349
2018-06-29 06:10:00+00:00,222.0,223.0,7.31,8.21,,47.59359,-54.27349
2018-06-29 06:20:00+00:00,226.0,224.0,7.56,8.6,,47.59359,-54.27349
2018-06-29 06:30:00+00:00,230.0,231.0,6.83,7.86,,47.59359,-54.27349
2018-06-29 06:40:00+00:00,226.0,221.0,6.48,7.16,,47.59359,-54.27349
2018-06-29 06:50:00+00:00,224.0,225.0,6.57,7.38,,47.59359,-54.27349
2018-06-29 07:00:00+00:00,223.0,224.0,6.55,7.67,,47.59359,-54.27349
2018-06-29 07:10:00+00:00,219.0,219.0,7.53,8.79,,47.59359,-54.27349
2018-06-29 07:20:00+00:00,216.0,215.0,7.17,8.21,,47.59359,-54.27349
2018-06-29 07:30:00+00:00,219.0,209.0,7.23,8.22,,47.59359,-54.27349
2018-06-29 07:40:00+00:00,221.0,223.0,6.87,7.76,,47.59359,-54.27349
2018-06-29 07:50:00+00:00,220.0,222.0,6.69,8.19,,47.59359,-54.27349
2018-06-29 08:00:00+00:00,217.0,215.0,6.03,6.84,,47.59359,-54.27349
2018-06-29 08:10:00+00:00,215.0,219.0,5.38,6.26,,47.59359,-54.27349
2018-06-29 08:20:00+00:00,223.0,223.0,6.08,7.03,,47.59359,-54.27349
2018-06-29 08:30:00+00:00,222.0,227.0,6.31,7.17,,47.59359,-54.27349
2018-06-29 08:40:00+00:00,222.0,226.0,7.51,8.38,,47.59359,-54.27349
2018-06-29 08:50:00+00:00,222.0,218.0,7.45,8.43,,47.59359,-54.27349
2018-06-29 09:00:00+00:00,221.0,222.0,6.63,8.28,,47.59359,-54.27349
2018-06-29 09:10:00+00:00,223.0,222.0,5.75,6.48,,47.59359,-54.27349
2018-06-29 09:20:00+00:00,224.0,222.0,5.9,6.85,,47.59359,-54.27349
2018-06-29 09:30:00+00:00,224.0,227.0,5.07,5.93,,47.59359,-54.27349
2018-06-29 09:40:00+00:00,218.0,218.0,5.76,6.5,,47.59359,-54.27349
2018-06-29 09:50:00+00:00,219.0,216.0,6.56,7.54,,47.59359,-54.27349
2018-06-29 10:00:00+00:00,219.0,218.0,8.19,8.96,,47.59359,-54.27349
2018-06-29 10:10:00+00:00,218.0,219.0,8.81,9.53,,47.59359,-54.27349
2018-06-29 10:20:00+00:00,221.0,218.0,9.95,11.16,,47.59359,-54.27349
2018-06-29 10:30:00+00:00,217.0,221.0,8.88,10.25,,47.59359,-54.27349
2018-06-29 10:40:00+00:00,218.0,221.0,8.13,9.52,,47.59359,-54.27349
2018-06-29 10:50:00+00:00,223.0,226.0,8.37,10.42,,47.59359,-54.27349
2018-06-29 11:00:00+00:00,225.0,229.0,6.51,8.25,,47.59359,-54.27349
2018-06-29 11:10:00+00:00,217.0,218.0,8.16,8.87,,47.59359,-54.27349
2018-06-29 11:20:00+00:00,217.0,218.0,8.0,9.58,,47.59359,-54.27349
2018-06-29 11:30:00+00:00,215.0,219.0,9.72,10.69,,47.59359,-54.27349
2018-06-29 11:40:00+00:00,217.0,216.0,9.82,11.11,,47.59359,-54.27349
2018-06-29 11:50:00+00:00,218.0,219.0,9.86,10.97,,47.59359,-54.27349
2018-06-29 12:00:00+00:00,221.0,219.0,11.07,12.3,,47.59359,-54.27349
2018-06-29 12:10:00+00:00,229.0,228.0,10.66,11.88,,47.59359,-54.27349
2018-06-29 12:20:00+00:00,225.0,224.0,10.21,11.45,,47.59359,-54.27349
2018-06-29 12:30:00+00:00,224.0,225.0,11.65,12.98,,47.59359,-54.27349
2018-06-29 12:40:00+00:00,227.0,228.0,12.29,13.42,,47.59359,-54.27349
2018-06-29 12:50:00+00:00,225.0,229.0,12.01,13.44,,47.59359,-54.27349
2018-06-29 13:00:00+00:00,228.0,231.0,11.56,12.52,,47.59359,-54.27349
2018-06-29 13:10:00+00:00,230.0,231.0,10.62,11.72,,47.59359,-54.27349
2018-06-29 13:20:00+00:00,233.0,231.0,10.24,11.49,,47.59359,-54.27349
2018-06-29 13:30:00+00:00,231.0,238.0,11.41,13.57,,47.59359,-54.27349
2018-06-29 13:40:00+00:00,230.0,227.0,11.78,12.92,,47.59359,-54.27349
2018-06-29 13:50:00+00:00,230.0,229.0,12.04,14.05,,47.59359,-54.27349
2018-06-29 14:00:00+00:00,231.0,233.0,12.55,14.13,,47.59359,-54.27349
2018-06-29 14:10:00+00:00,227.0,224.0,11.64,13.53,,47.59359,-54.27349
2018-06-29 14:20:00+00:00,229.0,233.0,13.32,15.19,,47.59359,-54.27349
2018-06-29 14:30:00+00:00,228.0,230.0,13.95,16.3,,47.59359,-54.27349
2018-06-29 14:40:00+00:00,229.0,231.0,11.33,13.29,,47.59359,-54.27349
2018-06-29 14:50:00+00:00,226.0,230.0,11.75,13.99,,47.59359,-54.27349
2018-06-29 15:00:00+00:00,230.0,224.0,10.3,12.42,,47.59359,-54.27349
2018-06-29 15:10:00+00:00,232.0,232.0,10.33,11.48,,47.59359,-54.27349
2018-06-29 15:20:00+00:00,235.0,230.0,9.78,11.51,,47.59359,-54.27349
2018-06-29 15:30:00+00:00,243.0,244.0,12.15,13.92,,47.59359,-54.27349
2018-06-29 15:40:00+00:00,241.0,240.0,12.05,14.41,,47.59359,-54.27349
2018-06-29 15:50:00+00:00,242.0,240.0,12.79,14.99,,47.59359,-54.27349
2018-06-29 16:00:00+00:00,241.0,240.0,13.0,15.59,,47.59359,-54.27349
2018-06-29 16:10:00+00:00,249.0,250.0,11.42,13.55,,47.59359,-54.27349
2018-06-29 16:20:00+00:00,245.0,241.0,11.44,14.7,,47.59359,-54.27349
2018-06-29 16:30:00+00:00,243.0,241.0,10.49,13.67,,47.59359,-54.27349
2018-06-29 16:40:00+00:00,240.0,237.0,10.97,13.11,,47.59359,-54.27349
2018-06-29 16:50:00+00:00,234.0,238.0,7.86,10.25,,47.59359,-54.27349
2018-06-29 17:00:00+00:00,233.0,231.0,7.31,8.74,,47.59359,-54.27349
2018-06-29 17:10:00+00:00,235.0,236.0,8.4,10.0,,47.59359,-54.27349
2018-06-29 17:20:00+00:00,243.0,252.0,9.51,11.25,,47.59359,-54.27349
2018-06-29 17:30:00+00:00,254.0,252.0,8.6,10.39,,47.59359,-54.27349
2018-06-29 17:40:00+00:00,240.0,239.0,8.59,10.87,,47.59359,-54.27349
2018-06-29 17:50:00+00:00,231.0,229.0,7.41,9.12,,47.59359,-54.27349
2018-06-29 18:00:00+00:00,224.0,223.0,8.36,9.92,,47.59359,-54.27349
2018-06-29 18:10:00+00:00,231.0,233.0,9.14,10.32,,47.59359,-54.27349
2018-06-29 18:20:00+00:00,223.0,227.0,10.27,11.87,,47.59359,-54.27349
2018-06-29 18:30:00+00:00,221.0,219.0,11.67,12.9,,47.59359,-54.27349
2018-06-29 18:40:00+00:00,226.0,223.0,10.26,11.41,,47.59359,-54.27349
2018-06-29 18:50:00+00:00,223.0,222.0,10.41,11.64,,47.59359,-54.27349
2018-06-29 19:00:00+00:00,219.0,220.0,10.12,11.04,,47.59359,-54.27349
2018-06-29 19:10:00+00:00,231.0,233.0,11.07,12.89,,47.59359,-54.27349
2018-06-29 19:20:00+00:00,228.0,229.0,11.29,13.22,,47.59359,-54.27349
2018-06-29 19:30:00+00:00,237.0,234.0,8.67,10.39,,47.59359,-54.27349
2018-06-29 19:40:00+00:00,231.0,233.0,9.68,10.91,,47.59359,-54.27349
2018-06-29 19:50:00+00:00,224.0,229.0,10.0,10.9,,47.59359,-54.27349
2018-06-29 20:00:00+00:00,229.0,217.0,9.22,11.19,,47.59359,-54.27349
2018-06-29 20:10:00+00:00,232.0,232.0,9.25,11.57,,47.59359,-54.27349
2018-06-29 20:20:00+00:00,248.0,246.0,7.97,9.36,,47.59359,-54.27349
2018-06-29 20:30:00+00:00,261.0,256.0,5.64,6.84,,47.59359,-54.27349
2018-06-29 20:40:00+00:00,278.0,280.0,6.66,7.39,,47.59359,-54.27349
2018-06-29 20:50:00+00:00,212.0,211.0,13.38,15.34,,47.59359,-54.27349
2018-06-29 21:00:00+00:00,210.0,217.0,15.56,17.43,,47.59359,-54.27349
2018-06-29 21:10:00+00:00,225.0,224.0,13.06,14.87,,47.59359,-54.27349
2018-06-29 21:20:00+00:00,216.0,216.0,16.06,19.63,,47.59359,-54.27349
2018-06-29 21:30:00+00:00,219.0,222.0,15.82,17.69,,47.59359,-54.27349
2018-06-29 21:40:00+00:00,217.0,214.0,14.55,16.21,,47.59359,-54.27349
2018-06-29 21:50:00+00:00,225.0,221.0,13.02,17.01,,47.59359,-54.27349
2018-06-29 22:00:00+00:00,230.0,231.0,14.54,16.29,,47.59359,-54.27349
2018-06-29 22:10:00+00:00,246.0,248.0,13.21,15.25,,47.59359,-54.27349
2018-06-29 22:20:00+00:00,254.0,260.0,12.32,14.14,,47.59359,-54.27349
2018-06-29 22:30:00+00:00,257.0,252.0,15.54,18.48,,47.59359,-54.27349
2018-06-29 22:40:00+00:00,257.0,256.0,13.85,15.76,,47.59359,-54.27349
2018-06-29 22:50:00+00:00,246.0,252.0,13.77,15.83,,47.59359,-54.27349
2018-06-29 23:00:00+00:00,243.0,245.0,12.92,15.3,,47.59359,-54.27349
2018-06-29 23:10:00+00:00,240.0,240.0,13.81,16.9,,47.59359,-54.27349
2018-06-29 23:20:00+00:00,242.0,244.0,12.93,15.86,,47.59359,-54.27349
2018-06-29 23:30:00+00:00,237.0,237.0,13.2,15.38,,47.59359,-54.27349
2018-06-29 23:40:00+00:00,233.0,241.0,12.89,14.69,,47.59359,-54.27349
2018-06-29 23:50:00+00:00,235.0,235.0,13.42,15.12,,47.59359,-54.27349
